Location: 81360 Arifat, France
(43.7204°N, 2.3408°E)
Time: 04:12:29
(UTC+02:00)

Envisat - Pass Details

Date: 07 October 2021
Orbit: 764 x 766 km, 98.2° (Epoch: 17 October)

Event Time Altitude Azimuth Distance (km) Brightness Sun altitude
Rises 06:50:29 0° 15° (NNE) 3,239 6.5 -12.5°
Reaches altitude 10° 06:52:49 10° 18° (NNE) 2,309 5.8 -12.1°
Maximum altitude 06:57:53 67° 102° (ESE) 826 3.4 -11.2°
Drops below altitude 10° 07:02:55 10° 185° (S) 2,292 5.4 -10.3°
Sets 07:05:13 0° 188° (S) 3,214 6.1 -9.9°
